Cordova, SC

11:58 AM EST on February 08, 2016 (GMT -0500)
Orangeburg Municipal

Weather History for KOGB - October, 2011

Change the Weather History Date:

Sunday, October 16, 2011

  Actual Average Record
Temperature  
Mean Temperature 64 °F 65 °F  
Max Temperature 80 °F 77 °F 87 °F (2008)
Min Temperature 47 °F 54 °F 34 °F (1978)
Degree Days  
Heating Degree Days 1 2  
Month to date heating degree days 24 23  
Since 1 July heating degree days 25 27  
Cooling Degree Days 0 3  
Month to date cooling degree days 31 67  
Year to date cooling degree days 2465 2061  
Growing Degree Days 14 (Base 50)    
Moisture  
Dew Point 49 °F    
Average Humidity 62    
Maximum Humidity 93    
Minimum Humidity 30    
Precipitation  
Precipitation 0.00 in 0.11 in 3.82 in (1964)
Month to date precipitation 0.94 2.09  
Year to date precipitation 33.18 39.19  
Sea Level Pressure  
Sea Level Pressure 30.10 in    
Wind  
Wind Speed 1 mph (South)    
Max Wind Speed 8 mph    
Max Gust Speed 10 mph    
Visibility 10 miles    
Events      
T = Trace of Precipitation, MM = Missing Value Source: NWS Daily Summary

Daily Weather History Graph

Daily Weather History Graph

Search for Another Location

Airport or City:

Trip Planner

Search our weather history database for the weather conditions in past years. The results will help you decide how hot, cold, wet, or windy it might be!

Date:

Astronomy

Oct. 16, 2011 Rise Set
Actual Time 7:28 AM EDT 6:48 PM EDT
Civil Twilight 7:03 AM EDT 7:13 PM EDT
Nautical Twilight 6:34 AM EDT 7:42 PM EDT
Astronomical Twilight 6:05 AM EDT 8:11 PM EDT
Moon 9:46 PM EDT (10/16) 11:31 AM EDT (10/16)
Length of Visible Light 12h 10m
Length of Day
11h 20m
Waning Gibbous, 82% of the Moon is Illuminated
Oct 16
Waning Gibbous
Oct 19
Last Quarter
Oct 26
New
Nov 2
First Quarter
Nov 10
Full

Hourly Weather History & Observations

Time (EDT) Temp. Dew Point Humidity Pressure Visibility Wind Dir Wind Speed Gust Speed Precip Events Conditions
12:53 AM 57.0 °F 53.1 °F 87% 30.08 in 10.0 mi Calm Calm - N/A   Clear
1:53 AM 55.9 °F 48.9 °F 77% 30.09 in 10.0 mi Calm Calm - N/A   Clear
2:53 AM 57.9 °F 46.9 °F 67% 30.09 in 10.0 mi NNW 4.6 mph - N/A   Clear
3:53 AM 54.0 °F 46.9 °F 77% 30.09 in 10.0 mi Calm Calm - N/A   Clear
4:53 AM 50.0 °F 46.0 °F 86% 30.10 in 10.0 mi Calm Calm - N/A   Clear
5:53 AM 51.1 °F 48.0 °F 89% 30.11 in 10.0 mi Calm Calm - N/A   Clear
6:53 AM 48.9 °F 46.0 °F 90% 30.12 in 10.0 mi Calm Calm - N/A   Clear
7:53 AM 48.0 °F 46.9 °F 96% 30.14 in 7.0 mi Calm Calm - N/A   Clear
8:53 AM 55.0 °F 48.9 °F 80% 30.16 in 10.0 mi Calm Calm - N/A   Clear
9:53 AM 64.0 °F 48.9 °F 58% 30.16 in 10.0 mi Calm Calm - N/A   Clear
10:53 AM 70.0 °F 45.0 °F 41% 30.16 in 10.0 mi ENE 4.6 mph - N/A   Clear
11:53 AM 73.9 °F 44.1 °F 34% 30.16 in 10.0 mi Variable 3.5 mph - N/A   Clear
12:53 PM 75.9 °F 44.1 °F 32% 30.14 in 10.0 mi Calm Calm - N/A   Clear
1:53 PM 78.1 °F 44.1 °F 30% 30.11 in 10.0 mi Variable 3.5 mph - N/A   Clear
2:53 PM 79.0 °F 44.1 °F 29% 30.08 in 10.0 mi Calm Calm - N/A   Clear
3:53 PM 79.0 °F 48.0 °F 34% 30.06 in 10.0 mi Calm Calm - N/A   Clear
4:53 PM 80.1 °F 46.9 °F 31% 30.05 in 10.0 mi South 5.8 mph - N/A   Clear
5:53 PM 78.1 °F 50.0 °F 37% 30.04 in 10.0 mi South 5.8 mph - N/A   Clear
6:53 PM 69.1 °F 54.0 °F 58% 30.04 in 10.0 mi Calm Calm - N/A   Clear
7:53 PM 64.0 °F 54.0 °F 70% 30.05 in 10.0 mi Calm Calm - N/A   Clear
8:53 PM 64.0 °F 54.0 °F 70% 30.06 in 10.0 mi Calm Calm - N/A   Clear
9:53 PM 62.1 °F 52.0 °F 70% 30.07 in 10.0 mi SSW 3.5 mph - N/A   Clear
10:53 PM 60.1 °F 52.0 °F 75% 30.07 in 10.0 mi South 3.5 mph - N/A   Clear
11:53 PM 57.9 °F 52.0 °F 81% 30.06 in 10.0 mi Calm Calm - N/A   Clear